Weather History for Decorah, IA

Change the Weather History Date:

Friday, February 14, 2014

  Actual Average Record
Temperature  
Mean Temperature 9 °F -  
Max Temperature 15 °F 30 °F 58 °F (1954)
Min Temperature 3 °F 12 °F -25 °F (1951)
Degree Days  
Heating Degree Days 56    
Moisture  
Dew Point 0 °F    
Average Humidity 69    
Maximum Humidity 79    
Minimum Humidity 57    
Precipitation  
Precipitation 0.00 in - - ()
Sea Level Pressure  
Sea Level Pressure 29.83 in    
Wind  
Wind Speed 9 mph (NW)    
Max Wind Speed 18 mph    
Max Gust Speed 21 mph    
Visibility 10 miles    
Events      
Averages and records for this station are not official NWS values.
T = Trace of Precipitation, MM = Missing Value Source: NWS Daily Summary

Daily Weather History Graph

Daily Weather History Graph

Search for Another Location

Airport:

Trip Planner

Search our weather history database for the weather conditions in past years. The results will help you decide how hot, cold, wet, or windy it might be!

Date:

Astronomy

Feb. 14, 2014 Rise Set
Actual Time 7:06 AM CST 5:36 PM CST
Civil Twilight 6:36 AM CST 6:05 PM CST
Nautical Twilight 6:03 AM CST 6:39 PM CST
Astronomical Twilight 5:30 AM CST 7:12 PM CST
Moon 5:42 PM CST (2/14) 6:32 AM CST (2/14)
Length of Visible Light 11h 28m
Length of Day
10h 30m
Full, 100% of the Moon is Illuminated
Feb 14
Full
Feb 14
Full
Feb 22
Last Quarter
Mar 1
New
Mar 8
First Quarter

Hourly Weather History & Observations

Time (CST) Temp. Windchill Dew Point Humidity Pressure Visibility Wind Dir Wind Speed Gust Speed Precip Events Conditions
12:15 AM 6.8 °F -7.8 °F -0.4 °F 72% 29.68 in 10.0 mi NW 10.4 mph - N/A   Partly Cloudy
12:35 AM 5.0 °F -6.9 °F -0.4 °F 78% 29.69 in 10.0 mi WNW 6.9 mph - N/A   Scattered Clouds
12:55 AM 5.0 °F -6.9 °F -0.4 °F 78% 29.68 in 10.0 mi WNW 6.9 mph - N/A   Partly Cloudy
1:15 AM 5.0 °F -8.1 °F -0.4 °F 78% 29.68 in 10.0 mi WNW 8.1 mph - N/A   Clear
1:35 AM 5.0 °F -8.1 °F -0.4 °F 78% 29.69 in 10.0 mi WNW 8.1 mph - N/A   Clear
1:55 AM 5.0 °F -5.6 °F -2.2 °F 72% 29.69 in 10.0 mi WNW 5.8 mph - N/A   Partly Cloudy
2:15 AM 3.2 °F -9.1 °F -2.2 °F 78% 29.69 in 10.0 mi WNW 6.9 mph - N/A   Clear
2:35 AM 3.2 °F -10.3 °F -2.2 °F 78% 29.69 in 10.0 mi NW 8.1 mph - N/A   Clear
2:55 AM 3.2 °F -9.1 °F -2.2 °F 78% 29.69 in 10.0 mi NW 6.9 mph - N/A   Clear
3:15 AM 5.0 °F -6.9 °F -2.2 °F 72% 29.68 in 10.0 mi NW 6.9 mph - N/A   Partly Cloudy
3:35 AM 5.0 °F -6.9 °F -2.2 °F 72% 29.67 in 10.0 mi NW 6.9 mph - N/A   Mostly Cloudy
3:55 AM 5.0 °F -10.8 °F -0.4 °F 78% 29.66 in 10.0 mi NNW 11.5 mph - N/A   Overcast
4:15 AM 5.0 °F -8.1 °F -0.4 °F 78% 29.66 in 10.0 mi North 8.1 mph - N/A   Overcast
4:35 AM 6.8 °F -5.9 °F -0.4 °F 72% 29.67 in 10.0 mi North 8.1 mph - N/A   Overcast
4:55 AM 6.8 °F -4.8 °F -0.4 °F 72% 29.68 in 10.0 mi NNW 6.9 mph - N/A   Overcast
5:15 AM 6.8 °F -4.8 °F 1.4 °F 79% 29.70 in 10.0 mi NW 6.9 mph - N/A   Overcast
5:35 AM 6.8 °F -6.9 °F 1.4 °F 79% 29.72 in - NW 9.2 mph - N/A   Overcast
5:55 AM 6.8 °F -6.9 °F 1.4 °F 79% 29.73 in 10.0 mi NW 9.2 mph - N/A   Overcast
6:15 AM 6.8 °F -3.5 °F -0.4 °F 72% 29.74 in 10.0 mi Variable 5.8 mph - N/A   Mostly Cloudy
6:35 AM 6.8 °F -5.9 °F -0.4 °F 72% 29.75 in 10.0 mi NW 8.1 mph - N/A   Scattered Clouds
6:55 AM 6.8 °F -5.9 °F -0.4 °F 72% 29.75 in 10.0 mi NW 8.1 mph - N/A   Mostly Cloudy
7:15 AM 6.8 °F -5.9 °F -0.4 °F 72% 29.75 in 10.0 mi NW 8.1 mph - N/A   Partly Cloudy
7:35 AM 6.8 °F -4.8 °F -0.4 °F 72% 29.77 in 10.0 mi WNW 6.9 mph - N/A   Clear
7:55 AM 6.8 °F -3.5 °F -0.4 °F 72% 29.78 in 10.0 mi WNW 5.8 mph - N/A   Clear
8:15 AM 6.8 °F -3.5 °F -0.4 °F 72% 29.78 in 10.0 mi NW 5.8 mph - N/A   Clear
8:40 AM 8.6 °F -7.0 °F 1.4 °F 73% 29.80 in 10.0 mi NW 12.7 mph - N/A   Clear
8:55 AM 8.6 °F -8.9 °F -0.4 °F 67% 29.80 in 10.0 mi NNW 16.1 mph - N/A   Clear
9:15 AM 6.8 °F -10.7 °F -0.4 °F 72% 29.81 in 10.0 mi NNW 15.0 mph - N/A   Clear
9:35 AM 6.8 °F -10.0 °F -0.4 °F 72% 29.81 in 10.0 mi NNW 13.8 mph 19.6 mph N/A   Clear
9:55 AM 8.6 °F -8.3 °F -0.4 °F 67% 29.81 in 10.0 mi NNW 15.0 mph - N/A   Clear
10:15 AM 8.6 °F -7.7 °F -0.4 °F 67% 29.82 in 10.0 mi NNW 13.8 mph - N/A   Clear
10:35 AM 8.6 °F -8.3 °F -0.4 °F 67% 29.82 in 10.0 mi NNW 15.0 mph - N/A   Clear
10:55 AM 10.4 °F -7.2 °F -0.4 °F 62% 29.83 in 10.0 mi NNW 17.3 mph - N/A   Clear
11:15 AM 10.4 °F -6.0 °F -0.4 °F 62% 29.84 in 10.0 mi NNW 15.0 mph 20.7 mph N/A   Clear
11:35 AM 10.4 °F -7.7 °F -0.4 °F 62% 29.85 in 10.0 mi NW 18.4 mph - N/A   Clear
11:55 AM 10.4 °F -7.2 °F -0.4 °F 62% 29.84 in 10.0 mi NNW 17.3 mph - N/A   Clear
12:15 PM 12.2 °F -3.7 °F 1.4 °F 62% 29.85 in 10.0 mi NNW 15.0 mph 20.7 mph N/A   Clear
12:35 PM 12.2 °F -4.3 °F 1.4 °F 62% 29.85 in 10.0 mi NNW 16.1 mph - N/A   Clear
12:55 PM 12.2 °F -4.3 °F 1.4 °F 62% 29.85 in 10.0 mi NNW 16.1 mph - N/A   Clear
1:15 PM 12.2 °F -4.8 °F 1.4 °F 62% 29.84 in 10.0 mi North 17.3 mph - N/A   Clear
1:35 PM 14.0 °F -1.4 °F 1.4 °F 57% 29.85 in 10.0 mi North 15.0 mph - N/A   Clear
1:55 PM 14.0 °F -1.4 °F 3.2 °F 62% 29.84 in 10.0 mi North 15.0 mph - N/A   Clear
2:15 PM 15.8 °F 3.4 °F 3.2 °F 58% 29.85 in 10.0 mi NNW 10.4 mph - N/A   Clear
2:35 PM 15.8 °F 2.1 °F 3.2 °F 58% 29.86 in 10.0 mi NNW 12.7 mph - N/A   Clear
2:55 PM 15.8 °F 2.7 °F 3.2 °F 58% 29.86 in 10.0 mi NW 11.5 mph - N/A   Clear
3:15 PM 15.8 °F 0.3 °F 3.2 °F 58% 29.87 in 10.0 mi NNW 16.1 mph - N/A   Clear
3:35 PM 15.8 °F 2.7 °F 3.2 °F 58% 29.88 in 10.0 mi NNW 11.5 mph 17.3 mph N/A   Clear
3:55 PM 15.8 °F 0.3 °F 3.2 °F 58% 29.89 in 10.0 mi NW 16.1 mph - N/A   Clear
4:15 PM 15.8 °F 3.4 °F 3.2 °F 58% 29.89 in 10.0 mi NW 10.4 mph - N/A   Clear
4:35 PM 15.8 °F 3.4 °F 3.2 °F 58% 29.90 in 10.0 mi NW 10.4 mph - N/A   Clear
4:55 PM 15.8 °F 2.1 °F 3.2 °F 58% 29.91 in 10.0 mi NW 12.7 mph - N/A   Clear
5:15 PM 14.0 °F 1.2 °F 3.2 °F 62% 29.92 in 10.0 mi NW 10.4 mph - N/A   Clear
5:35 PM 12.2 °F -0.2 °F 3.2 °F 67% 29.93 in 10.0 mi NW 9.2 mph - N/A   Clear
5:55 PM 12.2 °F -1.8 °F 3.2 °F 67% 29.93 in 10.0 mi NW 11.5 mph - N/A   Clear
6:15 PM 10.4 °F -0.4 °F 3.2 °F 73% 29.94 in 10.0 mi NW 6.9 mph - N/A   Clear
6:35 PM 10.4 °F -1.5 °F 1.4 °F 67% 29.96 in 10.0 mi NW 8.1 mph - N/A   Clear
6:55 PM 10.4 °F -2.4 °F 1.4 °F 67% 29.96 in 10.0 mi NW 9.2 mph - N/A   Clear
7:15 PM 10.4 °F -1.5 °F 1.4 °F 67% 29.96 in 10.0 mi NW 8.1 mph 15.0 mph N/A   Clear
7:35 PM 8.6 °F -6.3 °F 1.4 °F 73% 29.96 in 10.0 mi NW 11.5 mph - N/A   Clear
7:55 PM 8.6 °F -6.3 °F -0.4 °F 67% 29.96 in 10.0 mi NW 11.5 mph - N/A   Clear
8:15 PM 8.6 °F -3.7 °F -0.4 °F 67% 29.96 in 10.0 mi NW 8.1 mph 15.0 mph N/A   Clear
8:35 PM 8.6 °F -2.6 °F -0.4 °F 67% 29.96 in 10.0 mi NW 6.9 mph - N/A   Clear
8:55 PM 6.8 °F -2.0 °F -0.4 °F 72% 29.97 in 10.0 mi West 4.6 mph - N/A   Clear
9:15 PM 6.8 °F -3.5 °F -0.4 °F 72% 29.98 in 10.0 mi West 5.8 mph - N/A   Clear
9:35 PM 6.8 °F - -0.4 °F 72% 29.98 in 10.0 mi Calm Calm - N/A   Clear
9:55 PM 5.0 °F - -2.2 °F 72% 29.99 in 10.0 mi Calm Calm - N/A   Clear
10:15 PM 5.0 °F -4.1 °F -2.2 °F 72% 29.98 in 10.0 mi West 4.6 mph - N/A   Clear
10:35 PM 3.2 °F -4.2 °F -2.2 °F 78% 29.99 in 10.0 mi West 3.5 mph - N/A   Clear
10:55 PM 5.0 °F -4.1 °F -2.2 °F 72% 30.00 in 10.0 mi West 4.6 mph - N/A   Clear
11:15 PM 3.2 °F -9.1 °F -2.2 °F 78% 30.01 in 10.0 mi WNW 6.9 mph - N/A   Clear
11:35 PM 3.2 °F -7.8 °F -2.2 °F 78% 30.01 in 10.0 mi West 5.8 mph - N/A   Clear
11:55 PM 3.2 °F -6.2 °F -2.2 °F 78% 30.02 in 10.0 mi West 4.6 mph - N/A   Clear